Regional Weather Roundup
Issued by NWS

Home | Current Version | Previous Version | Graphics & Text | Print | Product List | Glossary On
Versions: 1 2 3 4 5 6 7 8 9 10 11 12 13 14 15 16 17 18 19 20 21 22 23 24 25 26 27 28 29 30 31 32 33 34 35 36 37 38 39 40 41 42 43 44 45 46 47 48 49 50
000
ASUS43 KDMX 251706
RWRIA

WEATHER ROUNDUP FOR IOWA
NATIONAL WEATHER SERVICE DES MOINES IA
1200 PM CDT TUE APR 25 2017

NOTE: "FAIR" INDICATES FEW OR NO CLOUDS BELOW 12,000 FEET WITH NO
SIGNIFICANT WEATHER AND/OR OBSTRUCTIONS TO VISIBILITY.

* - THESE STATIONS ARE NOT NWS STATIONS...THUS NOT UNDER NWS
QUALITY CONTROL.  THEY ALSO DO NOT REPORT WEATHER SUCH
AS PRECIPITATION OR FOG.

IAZ001>003-012>014-020>022-031>034-043>046-251800-
   NORTHWEST IOWA

CITY           SKY/WX    TMP DP  RH WIND       PRES   REMARKS
CARROLL *      CLOUDY    52  46  82 NE14      29.53S
CHEROKEE *     CLOUDY    44  43  97 NE7       29.52S
DENISON *      CLOUDY    52  45  76 NE12      29.53F
LE MARS *      CLOUDY    45  41  87 N17G24    29.56R
ORANGE CITY *  CLOUDY    43  39  87 N18G30    29.52R
SHELDON *      LGT RAIN  41  39  93 N24G32    29.51F
SIOUX CITY     CLOUDY    45  43  93 NW10      29.58R
SPENCER        LGT RAIN  41  40  96 N22G30    29.51F
STORM LAKE *   CLOUDY    45  41  87 NE18G25   29.51R
$$

IAZ055>058-069>071-079>083-090>094-251800-
   SOUTHWEST IOWA

CITY           SKY/WX    TMP DP  RH WIND       PRES   REMARKS
ATLANTIC *     CLOUDY    59  50  72 N12       29.48S
AUDUBON *      CLOUDY    55  48  76 N16       29.50F
CLARINDA *     MOSUNNY   68  52  56 VRB6      29.46S
COUNCIL BLFS * CLOUDY    57  48  72 N14       29.48R
CRESTON *      CLOUDY    68  48  49 S8G15     29.48S
HARLAN  *      CLOUDY    55  46  71 N17       29.52S
LAMONI         CLOUDY    69  49  48 S10       29.47F
RED OAK *      CLOUDY    66  54  63 NE8       29.45F
SHENANDOAH *   MOSUNNY   68  50  52 N8G15     29.44F
$$

IAZ047>049-059>061-072>074-084-251800-
   CENTRAL IOWA

CITY           SKY/WX    TMP DP  RH WIND       PRES   REMARKS
AMES           CLOUDY    61  51  70 SE9       29.52S
ANKENY *       MOSUNNY   63  48  59 SE5       29.51F
BOONE *        CLOUDY    61  52  72 SE6       29.51F
CHARITON *     MOSUNNY   70  50  49 S12G18    29.48F
DES MOINES     PTSUNNY   67  47  48 SE8       29.49F
GRINNELL*      CLOUDY    65  46  51 S9        29.55R
KNOXVILLE *    CLOUDY    70  46  43 S9        29.48F
MARSHALLTOWN   LGT RAIN  56  50  80 S6        29.54R
NEWTON *       MOSUNNY   64  46  52 S3        29.51F
PELLA *        CLOUDY    69  46  43 SE7       29.52F
PERRY *        PTSUNNY   61  47  60 N7        29.51S
$$

IAZ004>006-015-016-023>025-035-036-251800-
   NORTH CENTRAL IOWA

CITY           SKY/WX    TMP DP  RH WIND       PRES   REMARKS
ALGONA *       CLOUDY    45  45 100 N20G26    29.53F
CLARION *      PTSUNNY   52  52 100 N16       29.51F
ESTHERVILLE    LGT RAIN  40  40 100 N17       29.57F WCI  31
FORT DODGE *   CLOUDY    50  43  76 N8        29.55S
MASON CITY     LGT RAIN  52  48  86 NW12      29.58R FOG
FOREST CITY *  LGT RAIN  45  43  93 N12       29.56F
WEBSTER CITY * CLOUDY    55  48  76 NE6       29.51R
IOWA FALLS *   DRIZZLE   58  48  69 E8        29.54R
$$

IAZ007>011-017>019-026>030-037>042-050>054-066-251800-
   NORTHEAST IOWA

CITY           SKY/WX    TMP DP  RH WIND       PRES   REMARKS
CEDAR RAPIDS   CLOUDY    63  49  60 E9        29.52F
CHARLES CITY * CLOUDY    63  41  45 S10       29.56R
CLINTON *        N/A     71  47  42 S13       29.61F
DECORAH *      CLOUDY    66  43  42 VRB7      29.55R
DUBUQUE        CLOUDY    67  44  43 SE16      29.60S
MONTICELLO *   CLOUDY    70  43  37 SE15      29.56F
OELWEIN *      CLOUDY    68  45  42 S8        29.56R
WATERLOO       LGT RAIN  64  47  53 CALM      29.54R
$$

IAZ064-065-067-068-078-251800-
   EAST CENTRAL IOWA

CITY           SKY/WX    TMP DP  RH WIND       PRES   REMARKS
DAVENPORT      PTSUNNY   70  43  37 S13       29.60F
IOWA CITY      CLOUDY    67  47  48 E13       29.53F
MT. PLEASANT * CLOUDY    69  46  43 SE14G22   29.55R
MUSCATINE *    CLOUDY    70  46  43 E14       29.53F
QUAD CITIES    CLOUDY    70  44  39 S10       29.60F
$$

IAZ062-063-075>077-085>089-095>099-251800-
   SOUTHEAST IOWA

CITY           SKY/WX    TMP DP  RH WIND       PRES   REMARKS
BURLINGTON     PTSUNNY   69  49  48 SE14      29.56F
FAIRFIELD *    CLOUDY    70  46  43 SE20      29.53S
FORT MADISON * CLOUDY    73  46  38 SE12G20   29.56F
KEOKUK *       CLOUDY    70  48  46 SE16G22   29.53F
OSKALOOSA *      N/A     70  45  40 S9        29.52F
CENTERVILLE *    N/A     72  50  46 SE10      29.51F
OTTUMWA        MOSUNNY   70  47  43 S12       29.51F
WASHINGTON *   CLOUDY    72  46  40 SE15      29.55R
$$

ABBREVIATIONS USED IN REMARKS
   TC - TEMPERATURES IN CELSIUS
  WCI - WIND CHILL INDEX
   HX - HEAT INDEX
  VSB - VISIBILITY
$$




USA.gov is the U.S. government's official web portal to all federal, state and local government web resources and services.